Вернуться в каталог

SJ-5

АктивенНаукаSSO
NORAD 25731·PAYLOAD·🇨🇳 China

Запущен May 10, 1999 с Taiyuan Satellite Launch Center

Loading…

Ближайшие Пролёты (ближайшие 24 часа)

TLE

СвежийSource: Space-Track

Эпоха: Sep 14, 2026, 09:51 UTC

1 25731U 99025B   26257.41049453  .00000018  00000-0  32495-4 0  9991
2 25731  98.7187 297.5460 0018041 101.0516 259.2687 14.12942402407921

Отслеживайте SJ-5 в реальном времени с AllMySat

Download on the App Store